Погода в Словинке

Россия / Костромская область     58°01′50″N   43°07′09″E
темп.,
°C
ветер,
м/с
пор.,
м/с
влажн.,
%
обл.,
%
осадки,
мм/ч
давл.,
гПа
погр.,
м
18 мая, вт
вт1800:00+15в2986100 0.1 1016173
03:00+14в3109588 1.6 1016213
06:00+16в3109199 0.0 1016267
09:00+22вюв4768100 0.0 1016531
12:00+27юв4649100 0.0 10161176
15:00+28юв464795 0.0 10151627
18:00+24в3967100 0.0 1014411
21:00+21вюв4147381 0.0 1015463
19 мая, ср
ср1900:00+17вюв414915 0.3 1015403
03:00+16вюв412915 0.3 1015350
06:00+17вюв312795 0.0 1015406
09:00+23юв48555 0.0 1015681
12:00+27юв58403 0.0 10141361
15:00+28юв58400 0.0 10132071
18:00+25юв510520 0.0 10131068
21:00+20вюв413650 0.0 1014526
20 мая, чт
чт2000:00+17вюв413730 0.0 1013385
03:00+15вюв412800 0.0 1013316
06:00+17вюв413760 0.0 1012448
09:00+23юв58550 0.0 1012885
12:00+26юв69420 0.0 10101823
15:00+27юв6114396 0.0 10092705
18:00+20ююв5127721 1.9 10101051
21:00+17ююв311915 2.8 1010418
21 мая, пт
пт2100:00+14ююв29970 0.0 1010259
03:00+13ююв279717 0.0 1010151
06:00+14ю2691100 0.0 1010239
09:00+18ю3565100 0.0 1010947
12:00+20ююз346231 1.1 10091356
15:00+18юз347793 5.7 1009647
18:00+17з368783 3.8 1009570
21:00+14зсз4109351 6.3 1011452
22 мая, сб
сб2200:00+11зсз399733 0.0 1013394
03:00+10зсз31097100 0.0 1015280
06:00+11з3791100 0.0 1017233
09:00+16зсз3559100 0.0 1018575
12:00+19з35406 0.0 10192308
15:00+20зюз4637100 0.0 10192445
18:00+18зюз2456100 0.0 1019160
21:00+12зюз1176100 0.0 102010